GFSCGP_sfc_wetblb_336.txt.gz
Wetbulb
32.32 34.05 31.13 29.50 29.82 29.89 31.52 30.57 29.58 29.55 28.53 27.96 30.42 30.25 32.72 33.32 32.38 33.09 33.70 32.98 33.28 33.38 34.92 34.63 34.31 34.29 33.54 33.39 33.36 33.15 33.61 33.86 35.63 36.09 35.76 34.68 33.32 33.78 33.80 33.99 33.93 33.95 33.74 33.86
31.96 27.42 26.00 27.42 28.35 28.90 29.55 28.62 29.06 28.13 27.47 27.38 29.18 28.54 32.70 33.42 32.28 33.59 34.18 33.14 33.32 33.55 32.57 32.72 33.48 33.52 33.38 33.22 32.99 32.84 32.66 33.11 33.91 35.05 34.75 35.34 34.64 33.40 33.30 33.62 33.27 33.26 33.30 33.09
29.23 25.37 26.29 26.83 26.65 26.92 26.55 27.27 26.32 26.36 27.17 26.82 26.88 30.35 29.78 31.04 33.00 33.73 34.78 35.40 34.72 34.06 32.38 32.80 32.71 33.04 33.72 33.02 33.05 32.94 32.93 32.77 33.19 33.15 33.99 33.88 34.00 34.32 33.60 32.92 32.68 32.26 32.77 32.78
25.49 26.11 25.87 26.33 24.91 25.91 24.69 24.88 25.09 24.75 26.28 26.34 26.74 26.40 31.70 30.50 29.66 30.55 32.42 34.02 34.66 34.31 34.16 33.97 33.24 33.28 33.71 34.03 34.43 33.82 33.28 33.08 32.50 32.62 33.33 33.10 33.05 31.67 31.60 32.14 32.54 32.37 32.28 32.08
22.60 23.96 24.67 24.89 23.23 24.96 23.78 25.37 25.12 24.65 25.28 23.83 24.38 24.55 32.41 27.41 31.18 32.57 32.55 33.16 34.42 34.90 34.44 33.89 33.57 33.95 34.48 34.63 34.02 34.16 33.58 32.95 32.43 32.38 32.62 33.40 32.14 32.32 32.39 32.52 31.47 31.72 32.00 31.74
22.96 25.08 24.93 23.80 23.78 24.71 26.30 25.36 24.84 24.57 24.13 21.52 22.00 23.40 29.75 31.70 31.99 31.80 31.65 33.57 34.21 34.62 34.70 34.71 35.01 34.67 34.28 34.64 34.12 33.91 32.97 32.61 32.76 32.17 31.86 31.87 31.80 31.43 32.17 31.76 32.01 31.84 32.00 31.76
22.70 21.80 23.78 24.90 23.76 25.60 25.29 24.34 23.87 21.88 21.19 22.02 20.96 20.20 28.28 32.80 33.15 30.80 31.41 32.50 34.15 34.57 34.34 34.01 33.42 32.73 33.37 33.18 33.60 33.39 33.00 32.25 32.56 32.42 31.93 31.63 31.22 31.25 31.07 31.27 31.75 30.90 31.53 31.13
24.28 21.19 21.57 23.21 22.58 23.70 23.01 23.35 24.88 17.44 19.93 22.82 19.55 20.94 30.97 30.52 29.75 30.66 30.37 31.18 32.81 33.72 33.96 33.88 33.49 33.38 33.51 33.11 33.72 33.49 32.89 32.77 32.60 32.24 32.29 32.10 31.67 32.60 32.53 31.49 31.81 31.58 31.25 30.59
21.59 19.45 21.32 22.24 22.98 22.22 21.30 21.51 22.32 17.71 9.90 17.53 25.45 27.57 32.28 29.82 30.77 30.55 29.33 30.02 30.15 31.79 33.23 33.66 34.00 34.02 33.94 33.62 33.80 33.79 33.57 33.48 33.35 32.74 32.63 31.92 31.83 31.24 31.37 30.77 31.11 31.59 30.70 29.80
23.11 18.70 19.01 20.76 22.93 22.63 21.08 23.38 19.85 20.58 15.61 15.07 22.52 20.68 27.24 30.03 29.93 31.59 30.80 30.43 30.42 30.50 31.97 33.34 33.98 33.78 33.99 34.45 34.63 34.46 34.37 33.88 34.04 33.47 32.87 32.41 32.05 31.63 31.53 31.10 30.31 30.10 30.22 29.08
21.32 23.82 15.55 18.78 17.52 20.74 18.47 19.73 17.30 19.87 19.91 19.29 18.75 25.32 30.59 28.56 29.46 29.79 30.65 30.81 30.77 31.02 30.91 32.42 33.69 34.27 33.90 34.18 34.08 33.66 33.54 33.27 33.09 33.11 33.16 32.24 32.06 31.62 31.09 30.36 30.45 30.17 29.81 28.80
21.85 23.78 18.45 18.57 18.27 19.31 18.11 20.91 22.13 21.91 16.04 15.93 15.79 21.86 29.60 29.67 29.74 29.44 29.70 30.95 30.82 30.83 31.52 32.21 32.89 33.36 32.57 32.57 32.80 33.01 33.01 32.77 33.28 33.26 32.81 32.15 32.27 31.70 30.58 30.18 30.09 29.80 28.63 28.60
22.26 20.65 18.49 16.90 17.02 16.63 15.33 18.05 19.57 17.44 18.16 14.77 18.48 24.50 26.69 27.68 28.88 29.45 29.14 30.91 31.10 29.43 29.64 29.80 30.92 31.16 31.41 31.85 31.99 31.90 32.14 32.10 32.83 32.43 32.10 31.87 31.50 31.06 30.73 30.51 30.04 29.35 28.07 27.33
23.98 16.44 20.21 23.41 22.08 18.80 13.00 13.45 18.07 18.83 17.53 19.76 19.66 25.13 28.86 30.26 30.29 31.23 29.89 30.41 31.28 30.88 28.82 28.98 29.34 30.07 30.50 30.76 31.08 31.57 31.58 31.95 31.58 31.32 31.27 31.01 30.96 30.63 30.81 30.71 29.82 29.09 28.25 26.54
20.60 17.59 9.10 13.76 15.44 14.04 15.83 12.69 13.95 13.96 20.71 19.54 25.63 24.53 28.38 29.68 28.14 28.51 28.93 29.56 29.21 30.24 29.31 28.63 28.55 29.67 29.88 29.75 30.32 30.62 30.97 30.44 30.53 30.27 29.97 30.11 30.53 30.73 30.47 29.50 29.14 29.01 28.07 27.03
12.56 15.59 6.85 11.53 13.62 13.62 11.00 12.54 13.50 17.02 19.65 20.40 21.45 21.21 29.31 30.23 30.29 27.53 28.87 28.61 27.55 28.78 30.03 29.61 29.06 29.44 29.23 29.56 30.46 29.28 29.49 29.23 29.41 29.24 29.11 29.65 29.03 29.14 28.93 28.72 28.17 27.77 27.12 26.66
15.12 10.73 12.17 15.70 12.22 13.45 12.28 10.13 13.41 16.32 17.34 20.54 17.79 24.58 29.55 25.90 25.54 26.99 27.69 28.25 27.84 28.25 28.64 29.04 29.61 29.93 29.92 30.21 30.00 29.14 29.09 28.78 27.76 28.21 28.68 28.46 28.65 28.30 28.35 28.22 27.58 26.60 26.28 26.37
9.25 12.06 11.58 15.06 8.78 10.83 20.10 17.86 18.02 18.70 21.25 19.34 21.43 23.40 23.28 23.28 25.46 25.51 26.67 25.80 26.33 27.72 27.80 28.63 29.72 30.08 30.29 30.04 29.29 28.91 28.10 27.52 27.47 27.56 27.52 27.92 26.86 26.48 26.74 26.20 25.94 26.41 26.46 25.35
14.33 14.11 8.59 12.39 12.78 17.41 23.10 15.14 14.98 14.38 22.24 22.20 20.90 23.59 24.94 22.34 22.01 26.03 24.60 24.41 25.85 27.28 27.98 29.91 29.91 29.14 28.72 28.52 28.14 27.78 26.96 26.58 25.90 25.14 25.47 25.04 24.72 24.12 24.39 24.10 24.88 25.93 26.00 25.10
13.07 13.31 16.48 5.24 10.68 10.24 19.62 17.46 17.64 17.91 17.58 20.29 21.57 22.58 22.47 20.99 24.48 26.30 23.04 23.58 26.20 26.58 26.86 27.43 27.30 26.74 25.97 25.44 26.37 26.07 23.32 23.36 20.74 20.67 20.74 21.42 21.23 21.34 21.69 22.98 23.38 25.30 24.79 24.29
10.26 11.16 10.13 10.01 11.50 14.64 20.85 17.58 17.02 16.36 20.20 19.38 21.26 21.44 20.55 23.13 24.55 22.25 23.11 22.29 23.55 23.08 23.65 24.64 23.16 20.93 20.10 21.01 22.35 19.98 19.77 16.25 16.72 17.00 17.50 18.04 18.75 18.84 20.14 21.01 22.19 22.19 22.04 21.69
10.32 9.24 7.63 7.59 7.63 7.32 18.44 16.30 17.70 21.65 19.13 20.93 20.39 20.21 20.44 21.90 22.30 21.64 20.06 18.65 18.97 18.06 17.34 18.59 18.52 16.31 14.44 15.00 16.21 15.75 13.73 13.53 13.01 13.27 13.90 14.65 15.43 16.88 18.43 18.64 19.56 19.93 19.33 18.05
13.12 17.56 13.18 15.11 15.76 19.52 19.83 20.46 20.53 20.21 21.22 19.72 19.76 19.58 19.61 20.90 19.02 19.47 17.09 14.78 12.89 12.86 13.70 14.28 14.54 12.12 9.54 10.13 10.63 10.58 10.52 9.76 8.84 8.61 9.45 11.43 13.28 14.40 15.67 15.57 17.41 18.43 17.81 16.96
13.47 14.75 16.50 15.41 19.86 18.96 18.76 20.47 18.53 18.10 17.69 16.57 16.05 14.92 16.39 16.31 15.39 14.95 14.47 12.90 12.26 11.60 10.42 11.01 11.38 9.40 8.55 8.03 8.50 7.74 8.00 6.37 5.26 5.92 7.56 10.16 11.76 13.08 14.25 15.22 16.27 16.97 17.42 16.52
16.98 15.92 15.22 14.98 17.79 17.82 15.50 15.49 15.50 14.17 14.50 13.68 12.36 11.54 11.43 12.91 10.41 11.48 9.93 9.28 9.32 9.32 8.49 8.15 7.58 7.32 6.84 6.89 6.88 6.84 5.46 4.28 4.06 5.17 7.02 9.42 11.35 12.26 12.70 14.00 14.25 14.26 15.85 15.95
16.39 16.82 16.52 18.25 19.78 19.66 12.99 10.69 12.56 11.39 10.13 10.65 11.02 8.86 7.88 8.68 7.07 7.94 7.02 6.61 5.93 5.86 5.63 4.76 4.63 3.78 3.95 4.29 4.36 4.56 2.88 2.22 0.93 2.77 5.88 7.03 7.54 9.26 10.76 11.48 12.31 16.06 17.61 19.34

GFSCGP_sfc_wetblb_339.txt.gz
Wetbulb
37.02 36.66 34.61 33.82 32.92 33.19 34.06 32.95 32.24 33.82 31.40 30.37 33.52 34.19 36.22 38.17 35.95 36.14 37.74 38.11 37.60 37.26 38.45 37.12 36.55 36.29 35.67 35.74 35.26 35.29 35.17 35.50 36.82 37.31 37.27 36.42 35.13 35.62 35.46 35.55 35.64 35.67 35.46 35.52
34.68 32.74 30.10 30.79 31.58 32.42 32.49 31.44 32.40 32.52 30.24 29.72 32.38 31.53 35.21 37.14 37.07 37.15 37.42 38.24 37.93 37.58 37.24 35.65 35.61 35.64 35.13 34.95 35.20 34.95 34.82 35.32 35.78 36.73 36.48 36.73 35.75 35.08 35.19 35.49 35.06 35.12 35.08 35.03
33.14 28.41 28.62 29.33 29.77 29.69 30.02 29.83 29.75 28.38 30.39 30.99 29.73 32.95 34.73 35.55 36.82 38.09 37.94 38.95 39.32 37.70 36.67 35.16 34.68 34.83 35.29 34.82 34.77 34.74 34.73 34.89 35.26 35.48 35.54 35.32 35.63 35.88 35.22 34.76 34.37 34.02 34.70 34.63
28.85 28.26 27.88 28.98 27.76 28.11 27.19 28.07 27.51 27.43 28.75 28.54 30.58 27.47 33.88 36.43 34.61 34.64 35.90 37.07 38.15 38.38 38.30 36.76 35.34 34.94 35.18 35.53 35.95 35.52 35.19 34.78 34.96 35.19 35.28 35.19 34.84 33.12 33.26 33.82 34.23 34.02 34.18 33.87
24.11 26.31 26.74 27.61 24.70 26.84 26.04 27.90 27.90 27.78 28.35 26.99 28.92 26.74 33.07 33.75 34.42 35.56 36.57 36.73 37.78 38.97 38.45 37.26 36.08 35.82 36.40 36.40 36.00 35.85 35.46 35.06 34.62 34.74 35.22 35.24 34.14 33.91 34.11 34.08 33.59 33.75 33.92 33.64
25.10 27.43 27.42 26.15 26.06 27.23 28.76 27.89 27.83 28.10 27.83 24.08 26.88 26.68 30.82 33.56 33.14 34.99 36.20 36.33 37.10 38.04 38.56 38.20 38.00 36.98 36.38 36.62 36.00 35.89 34.90 34.44 34.58 34.45 34.24 34.31 33.92 33.49 33.47 33.33 33.34 33.33 33.48 33.40
24.82 24.15 25.98 27.01 25.99 27.72 27.37 27.03 26.08 24.16 23.64 24.43 25.52 23.85 30.24 34.60 33.93 33.70 34.02 35.22 36.27 37.88 37.87 37.40 36.93 35.66 35.70 35.11 35.17 35.32 34.69 33.73 34.45 34.05 33.99 34.01 33.85 33.44 32.89 32.92 33.04 32.50 32.91 32.50
25.49 22.14 24.21 25.22 25.56 25.71 26.79 26.70 27.14 20.05 21.99 25.83 23.84 23.23 31.84 32.78 33.74 34.68 34.25 34.47 34.46 35.98 37.33 37.19 37.18 36.24 35.54 35.21 35.17 34.99 34.34 34.08 34.18 34.18 33.98 34.29 34.03 33.92 33.77 33.19 33.08 32.73 32.37 31.94
25.69 21.42 23.92 23.86 25.39 25.45 25.30 23.03 26.26 22.80 15.71 20.64 27.70 30.70 34.22 32.77 33.42 34.18 33.06 32.98 33.90 34.62 36.30 36.75 37.32 36.71 35.97 35.39 35.29 35.28 34.69 34.75 34.62 34.21 34.32 34.06 33.98 33.39 33.29 33.20 33.06 32.89 32.31 31.61
27.96 20.02 21.70 22.67 25.19 25.26 23.69 26.64 22.44 24.24 17.94 17.53 25.87 25.47 28.00 31.56 31.92 33.77 33.45 33.86 34.36 33.87 34.78 36.32 36.95 36.70 36.61 36.31 36.14 36.24 35.93 35.06 35.24 34.90 34.69 34.39 34.02 33.85 33.65 33.45 32.58 32.62 32.44 31.22
28.35 27.35 18.00 20.83 19.74 23.89 21.17 22.35 21.65 23.16 23.14 21.21 21.08 26.83 35.81 32.42 32.35 32.66 32.58 33.64 34.18 34.37 34.14 35.37 36.78 37.34 37.05 36.69 36.20 35.84 35.67 35.27 35.25 35.21 35.03 34.39 34.04 33.85 33.50 32.70 32.84 32.58 32.37 31.37
26.54 30.76 20.20 21.85 22.10 22.66 21.07 24.99 25.64 23.73 20.19 21.37 19.67 23.32 32.43 33.28 32.84 32.77 31.95 32.64 33.92 33.86 34.83 35.47 35.97 37.17 36.41 35.66 35.60 35.44 35.40 34.97 35.28 35.46 35.04 34.43 34.26 33.93 32.94 32.42 32.71 33.01 31.52 31.40
25.75 26.42 20.23 18.50 18.98 19.31 17.50 22.19 23.97 22.57 22.50 20.31 20.50 25.60 30.57 31.07 31.22 32.47 31.87 32.29 33.32 33.84 34.32 34.42 34.84 35.61 36.02 35.44 35.21 35.16 35.30 34.97 35.19 35.03 34.14 33.74 33.35 33.10 32.69 32.86 32.84 32.34 31.21 30.71
26.78 24.19 24.22 25.15 23.24 22.65 16.08 18.65 22.02 22.07 20.22 22.18 22.76 26.77 30.79 32.22 32.67 33.90 33.23 33.32 33.22 33.14 33.30 33.19 33.31 33.99 35.50 34.82 34.62 34.39 34.28 34.56 34.09 33.61 33.14 32.72 32.90 32.59 32.46 32.63 32.31 31.65 31.19 29.59
23.86 20.45 15.85 19.03 20.75 19.81 20.74 16.53 18.10 17.41 22.68 21.35 26.55 27.58 30.90 32.85 30.98 31.55 32.23 31.74 31.24 31.41 31.91 32.80 31.93 32.75 33.88 33.88 33.53 33.53 33.95 33.10 33.13 32.06 31.95 32.15 32.65 32.36 32.26 31.95 31.49 31.19 30.55 29.63
16.84 19.72 12.17 15.14 19.67 18.40 14.52 17.38 17.06 19.93 21.29 23.23 24.90 24.66 31.94 32.48 32.48 31.20 30.89 30.42 29.83 30.27 30.85 31.39 31.88 31.36 31.49 31.85 32.47 31.71 32.60 32.60 32.21 31.37 31.31 31.72 31.38 30.82 30.68 30.84 30.47 30.07 29.64 29.25
17.45 15.79 16.08 18.61 17.25 17.92 13.49 13.32 16.17 19.87 21.86 22.65 20.22 26.86 31.64 30.18 28.15 28.45 28.39 28.72 28.65 29.35 29.55 29.80 31.18 31.34 31.36 31.69 31.88 31.89 31.94 32.20 30.83 30.57 30.90 30.77 30.29 30.02 30.03 30.21 29.70 28.83 28.48 28.84
16.86 17.82 19.59 18.48 13.05 12.60 22.39 23.11 21.79 21.13 24.78 24.06 25.26 27.44 27.38 26.87 27.84 27.43 27.33 26.19 27.28 28.72 29.05 30.17 31.08 32.16 32.22 33.10 32.02 32.26 31.51 30.17 29.37 29.32 29.41 29.53 28.88 28.19 28.27 27.84 27.42 27.75 28.34 27.96
18.11 20.75 16.00 15.90 15.88 21.66 24.70 19.11 17.81 16.67 22.70 24.57 24.82 26.12 27.72 27.10 25.17 25.58 26.03 26.70 27.22 27.74 28.67 30.22 30.26 30.50 30.32 29.99 29.97 29.52 28.91 28.37 27.85 26.21 26.43 25.01 24.96 24.67 25.08 25.02 25.11 26.66 27.43 27.96
15.70 16.61 18.77 11.26 13.67 13.75 21.63 21.25 23.07 22.55 17.73 25.23 26.56 26.34 26.27 24.44 23.54 25.75 24.24 26.08 26.27 26.18 26.57 27.11 27.24 26.30 24.71 25.20 27.66 25.88 23.67 21.93 18.89 19.19 19.60 20.77 21.16 20.96 21.17 22.32 22.52 24.40 25.64 25.65
11.87 13.84 12.39 14.98 14.45 20.19 24.92 21.08 21.96 16.99 21.85 22.37 25.51 25.37 24.45 24.84 24.09 24.17 24.53 23.46 22.81 22.09 23.02 23.90 21.83 18.85 17.95 19.60 22.17 19.98 17.61 13.86 14.88 15.50 16.21 17.31 18.29 18.29 19.68 20.77 21.79 21.85 22.34 23.08
12.95 12.93 11.63 15.28 12.16 10.03 23.04 19.17 19.29 23.02 22.05 22.93 23.81 23.94 23.09 23.74 23.61 22.09 20.86 19.27 19.09 18.10 17.61 19.45 17.85 14.63 13.04 13.50 15.76 15.37 12.05 11.80 11.26 11.14 12.42 13.25 14.77 16.33 18.12 17.81 18.48 19.32 20.17 19.95
15.47 22.27 16.83 18.96 18.22 22.07 23.47 23.51 23.13 23.33 23.59 22.55 23.38 21.75 21.72 22.87 21.13 21.46 17.88 15.16 13.38 13.45 14.53 15.03 14.73 12.27 9.17 9.72 10.21 10.31 9.49 8.07 7.38 7.64 8.39 10.67 12.75 14.64 16.39 15.78 16.56 17.62 19.68 20.35
17.17 19.96 19.75 17.75 22.33 21.34 21.78 22.06 22.04 21.76 20.82 19.37 19.19 18.19 19.95 19.40 18.46 17.03 15.95 14.47 13.92 12.63 11.14 11.71 12.26 10.04 9.35 9.24 9.48 8.17 7.36 5.78 5.16 6.23 7.84 10.14 11.53 13.19 14.81 16.19 17.00 17.33 17.50 18.19
20.64 18.86 18.83 18.18 20.02 19.65 20.08 22.81 20.90 17.47 17.31 15.32 14.51 14.78 15.46 15.54 13.64 14.14 12.29 11.43 11.24 10.97 9.52 8.96 8.46 7.86 6.85 6.97 6.71 6.61 5.12 3.98 3.51 4.90 6.89 8.99 10.20 10.29 11.31 13.38 14.61 15.18 16.51 17.18
19.90 20.31 18.40 19.87 23.58 22.61 17.67 16.30 17.10 15.07 13.86 14.47 12.54 10.32 10.42 11.74 10.07 10.91 9.11 8.27 7.64 7.09 6.29 5.73 5.38 4.44 4.45 4.52 4.40 4.00 2.76 1.87 0.57 2.04 4.51 5.15 6.27 7.36 9.16 9.99 10.62 15.40 17.25 19.04

GFSCGP_sfc_wetblb_342.txt.gz
Wetbulb
34.76 31.15 27.50 29.53 30.01 30.24 29.96 27.59 26.18 28.65 28.96 25.46 28.25 29.82 31.76 33.03 32.30 31.29 32.43 32.92 33.01 33.11 34.12 33.77 33.46 32.45 31.90 31.90 31.48 31.84 32.11 32.67 32.75 32.10 31.62 30.83 29.70 30.52 30.59 31.16 32.48 32.51 32.33 32.79
29.64 26.42 28.30 30.71 30.16 29.23 28.38 25.57 25.53 26.96 28.39 25.37 26.82 26.60 30.31 32.49 32.50 32.43 32.11 32.38 33.41 33.34 32.35 32.34 31.64 31.30 30.77 30.46 30.98 31.48 32.10 32.22 32.27 32.09 31.28 31.04 29.74 29.74 30.44 31.67 31.80 32.49 32.29 32.38
27.39 25.91 28.90 28.21 26.01 26.97 25.27 23.21 23.47 21.99 25.51 26.56 23.84 23.75 27.69 29.73 30.86 33.22 33.51 33.80 34.04 33.69 32.28 29.99 29.85 29.53 29.29 28.90 29.41 31.00 31.22 31.72 31.75 32.28 31.73 31.05 30.84 30.07 29.41 29.67 29.52 31.08 32.31 31.91
24.79 26.44 25.81 23.77 24.69 24.42 23.48 23.42 23.77 23.75 22.27 19.51 22.76 18.45 26.80 28.08 29.14 30.13 31.06 31.41 32.37 33.22 34.20 32.26 30.72 29.60 29.28 28.89 29.59 30.58 31.33 31.09 31.86 31.90 31.01 30.44 28.20 26.40 27.83 28.95 29.44 29.81 31.53 30.92
20.98 21.25 22.34 23.64 21.91 23.24 21.89 23.98 22.65 22.14 20.70 19.64 19.13 18.37 24.05 27.22 27.21 27.37 28.20 30.95 31.40 33.14 33.53 32.30 31.53 31.95 31.03 30.82 29.23 29.31 30.13 30.42 30.72 30.71 31.18 29.50 28.11 28.17 28.58 28.86 28.58 29.17 29.63 30.11
21.52 24.92 23.66 21.68 23.52 23.60 25.38 22.55 21.69 20.61 21.09 12.65 18.52 19.06 20.47 24.74 25.61 27.57 30.01 31.06 32.04 31.52 33.20 33.34 33.05 32.73 30.81 30.28 29.93 29.43 29.77 29.77 30.05 29.85 29.71 29.31 28.32 27.93 27.06 27.23 26.94 27.24 27.76 28.30
21.94 20.82 21.81 23.60 21.94 23.60 22.48 20.43 17.37 14.20 12.59 15.37 19.30 16.83 19.99 26.50 26.89 26.96 27.87 29.08 29.93 31.27 31.37 31.98 31.09 30.26 30.37 29.23 28.79 29.81 29.37 28.80 29.56 29.17 29.09 29.31 28.82 28.45 27.99 27.41 26.55 26.47 26.33 26.11
18.36 16.15 20.53 22.50 21.03 21.23 21.68 19.88 18.24 8.78 13.88 16.82 20.05 16.42 21.81 27.55 27.58 28.35 28.73 28.05 29.15 29.33 31.97 31.84 31.96 30.43 29.93 29.69 29.30 29.56 28.83 28.77 29.21 29.12 28.75 28.99 29.11 28.09 27.99 27.94 27.10 26.69 26.17 26.23
18.31 17.18 20.86 22.37 22.32 21.51 19.75 15.29 19.31 11.94 9.95 10.41 19.05 21.56 25.08 26.14 26.53 27.65 26.41 28.03 26.95 27.28 29.97 31.81 32.31 31.12 30.17 29.70 29.81 29.61 29.31 29.15 29.37 29.13 28.86 28.66 28.61 28.00 27.77 27.99 27.75 26.91 27.27 28.95
22.94 12.04 20.77 20.40 21.73 20.88 19.17 21.45 15.61 15.37 4.83 4.96 18.75 17.23 17.86 23.29 26.23 28.08 27.24 26.65 27.35 27.08 27.45 30.44 31.86 31.61 31.29 30.71 30.58 30.41 30.04 29.58 29.39 29.24 29.09 29.49 28.49 28.57 28.39 28.13 26.89 27.02 27.29 27.33
21.35 21.33 16.23 19.50 15.55 18.43 15.73 15.83 16.98 18.11 16.43 11.76 10.41 15.32 24.84 25.29 27.83 27.22 26.80 27.45 27.04 27.99 28.71 29.77 31.10 31.85 31.75 31.12 30.95 30.23 29.90 29.52 29.32 29.33 29.10 28.52 28.51 28.44 27.99 27.27 27.10 27.08 27.50 26.88
23.52 20.78 12.13 15.34 17.61 19.30 18.12 18.65 19.18 13.93 11.09 13.05 13.69 12.81 27.67 28.05 27.77 28.10 26.70 28.29 27.00 26.77 29.15 29.42 30.02 30.76 30.57 30.03 30.22 30.38 29.95 29.51 29.80 30.03 29.55 28.76 28.89 28.39 27.10 26.79 27.04 27.96 26.92 27.06
19.64 18.80 9.22 15.10 15.32 16.50 10.83 19.63 21.80 19.07 17.81 11.05 8.79 14.88 27.60 26.11 25.08 27.08 27.06 26.70 27.80 26.33 26.46 29.00 29.18 29.40 29.81 29.63 29.48 29.43 29.52 29.15 29.76 29.80 29.08 28.54 28.06 27.42 26.96 26.99 27.33 27.42 25.52 25.10
26.39 17.20 16.89 16.87 18.89 15.01 8.41 12.28 19.63 12.98 7.79 14.11 18.35 19.51 22.54 24.49 25.03 26.40 26.13 25.58 24.53 25.84 27.20 27.96 27.18 28.12 29.27 29.20 28.88 28.83 29.16 29.15 28.91 28.55 28.15 27.40 27.50 27.53 27.16 27.00 27.06 27.12 26.22 24.47
20.88 11.56 10.68 13.55 17.70 16.65 12.90 8.71 14.91 11.81 17.41 13.46 22.07 22.28 24.16 25.81 22.85 24.22 24.95 24.48 24.30 25.30 25.98 26.08 26.65 26.89 27.77 28.28 27.82 28.18 28.36 28.28 28.19 27.38 26.41 26.39 27.34 27.52 27.06 26.51 26.63 26.56 26.35 25.82
14.03 11.02 6.89 8.53 17.95 17.72 10.14 12.70 13.34 18.09 18.68 18.70 20.88 20.58 26.73 22.72 24.47 24.13 25.01 24.92 24.33 24.38 24.95 25.01 26.30 25.90 27.11 27.57 27.37 27.75 26.92 26.13 26.64 25.91 25.63 26.59 26.60 26.28 25.83 25.89 25.81 25.77 25.55 25.15
12.42 9.21 7.60 6.95 16.50 15.31 8.61 11.80 14.79 15.68 12.70 18.73 14.94 22.46 24.67 20.68 23.42 21.63 21.88 22.77 22.93 23.58 24.22 24.64 25.08 26.56 26.83 26.10 27.43 25.86 25.83 25.44 25.22 25.07 25.96 26.11 25.80 25.35 25.22 25.56 25.35 25.01 24.26 24.46
12.83 11.11 11.91 6.55 5.24 2.72 16.04 18.02 15.61 18.64 19.73 20.65 18.69 20.05 19.79 20.27 20.81 21.61 21.50 19.81 22.84 23.53 23.73 24.63 24.85 25.06 25.21 25.72 26.20 26.54 26.35 25.39 24.99 24.85 24.70 24.51 24.56 23.97 24.55 23.59 23.22 22.65 23.55 20.59
15.68 14.86 7.61 5.14 2.24 14.53 17.71 14.84 12.16 11.71 14.90 20.58 21.25 23.39 20.39 18.59 17.99 17.21 22.01 22.91 21.74 21.59 22.96 22.73 21.82 21.05 21.10 22.16 23.73 23.67 21.54 20.85 20.21 19.33 19.96 19.68 20.64 20.45 20.58 20.65 17.91 16.85 18.06 16.92
15.96 12.77 11.08 2.11 2.93 4.12 13.18 15.65 18.87 16.71 11.44 15.82 21.70 21.65 20.58 18.51 13.33 12.96 17.94 21.43 20.59 20.70 20.42 19.22 18.27 17.28 16.93 18.95 21.61 18.54 15.57 14.38 12.54 14.39 15.45 16.87 16.97 17.87 16.21 16.74 17.35 17.23 14.58 17.94
4.02 4.51 6.24 5.91 3.31 11.59 16.73 17.59 17.51 8.66 13.15 17.25 20.34 20.22 19.43 16.69 14.86 17.56 19.76 17.77 18.16 17.81 19.20 17.10 14.91 12.93 12.96 15.87 18.05 14.41 11.38 8.32 10.61 10.79 12.20 13.66 13.99 14.98 16.14 16.32 15.51 13.96 14.22 15.74
8.08 7.96 4.01 4.36 1.95 4.94 18.41 17.09 15.78 16.82 15.23 18.42 18.26 18.68 19.07 18.93 18.56 17.40 16.19 15.43 15.49 13.94 14.94 16.34 12.72 10.31 9.92 10.77 13.17 10.12 7.25 7.62 6.58 7.18 8.66 8.75 10.00 13.21 15.53 14.12 14.38 13.24 13.36 14.73
10.36 14.91 11.86 14.49 13.58 14.72 20.24 19.39 19.54 17.96 16.58 18.96 17.88 18.42 19.93 18.85 17.63 16.21 13.35 12.05 10.38 10.92 12.69 13.68 11.61 8.10 3.42 5.82 7.81 7.41 5.64 4.88 4.07 3.06 3.45 4.48 8.21 12.23 14.06 12.95 13.22 13.55 14.47 15.74
11.33 14.40 13.05 14.83 12.55 15.53 18.90 19.52 18.95 19.29 17.87 17.85 17.58 17.14 18.28 16.23 16.85 14.69 14.00 13.58 11.88 10.81 9.23 10.53 10.28 7.58 4.50 5.13 5.94 5.22 3.78 1.86 -1.16 -0.14 2.37 5.88 7.17 8.05 9.31 10.96 12.21 12.34 12.00 12.73
15.04 15.72 11.33 13.74 17.70 19.05 20.57 20.96 18.13 16.78 16.00 14.70 14.88 15.70 15.15 15.09 14.58 13.50 11.54 10.55 10.01 8.83 7.60 7.10 6.16 5.14 3.91 4.19 2.68 1.89 1.96 1.08 0.31 1.01 1.65 2.64 4.09 3.83 5.50 7.95 8.57 10.49 11.10 13.99
15.46 14.93 15.16 16.42 21.04 20.08 18.31 18.94 18.45 15.41 13.88 12.88 11.40 10.23 11.56 12.38 10.91 10.22 7.41 6.92 6.47 4.82 4.42 3.64 3.05 1.68 1.00 1.05 0.43 -0.07 -0.63 -0.37 -2.59 -1.19 0.30 1.03 2.43 2.53 4.77 4.66 4.98 10.82 13.44 15.34

GFSCGP_sfc_wetblb_345.txt.gz
Wetbulb
31.55 26.99 23.58 23.21 24.94 26.67 26.00 25.37 24.57 22.86 26.46 23.40 23.45 24.88 27.61 29.76 28.68 27.36 28.84 29.11 29.14 29.81 31.25 31.78 31.46 30.42 30.19 30.02 30.25 30.63 31.15 31.87 31.50 30.58 29.67 28.73 27.72 28.62 29.13 30.32 31.55 31.65 31.81 32.13
26.62 23.77 24.48 28.07 27.94 27.51 25.86 23.29 21.53 23.04 26.22 23.27 22.85 23.55 25.65 26.86 28.29 28.85 29.61 29.27 29.75 29.54 28.58 30.25 29.30 29.01 28.76 28.71 29.13 29.50 30.74 30.87 31.08 30.91 30.01 29.14 28.12 28.59 29.39 30.17 30.54 31.54 31.37 31.48
23.34 22.42 26.95 26.74 25.10 25.59 21.13 21.76 20.23 21.06 22.56 23.03 20.27 22.85 26.08 28.16 28.12 29.54 29.27 29.56 29.69 29.78 27.83 27.59 27.17 26.72 26.53 26.77 26.95 28.81 29.43 29.68 29.95 30.63 30.01 29.40 28.98 28.32 27.47 28.19 28.50 30.44 31.27 31.10
21.81 24.38 24.75 23.58 23.14 22.93 22.60 22.01 23.10 23.31 19.93 19.29 20.30 18.53 21.75 24.23 25.48 28.22 29.23 28.63 29.65 29.56 28.75 28.77 27.67 26.08 26.20 26.37 26.61 28.18 29.19 29.09 30.09 30.24 29.19 28.31 25.96 24.50 25.81 27.37 27.76 28.67 30.19 29.80
20.18 20.63 21.99 22.91 22.06 22.37 22.30 22.85 21.77 21.18 18.61 17.67 17.20 17.94 22.07 24.39 23.49 24.22 26.05 28.48 28.15 29.73 28.82 28.24 28.44 29.32 27.84 27.50 26.28 26.75 27.74 28.36 29.07 28.94 29.05 26.90 25.53 25.84 26.56 27.04 26.99 27.88 28.36 29.00
20.25 23.38 21.53 20.91 23.22 23.27 24.45 22.15 21.53 19.51 17.95 9.05 16.30 17.83 19.21 22.53 25.92 26.19 26.75 25.71 27.54 27.70 29.01 28.78 29.51 29.52 28.36 26.89 26.49 26.30 27.17 27.30 28.28 28.31 28.11 27.35 26.43 25.92 25.20 25.25 25.45 25.54 25.99 26.40
20.57 19.92 20.57 23.12 20.91 23.30 21.65 19.93 13.37 10.88 7.88 11.12 17.79 16.06 19.13 24.34 25.56 26.36 25.54 25.00 25.54 26.44 27.88 27.05 27.56 28.17 28.14 26.53 26.02 26.73 26.90 26.59 27.39 27.39 27.34 27.28 26.94 26.55 26.25 25.88 24.97 24.76 24.67 24.42
15.91 15.52 19.45 21.60 20.06 19.26 20.58 18.62 13.65 6.88 11.87 15.37 19.22 15.09 20.82 25.90 25.81 26.21 27.19 26.81 27.84 27.10 29.17 27.93 28.64 28.70 28.32 27.91 27.27 27.59 26.47 26.64 26.85 26.72 26.76 27.02 27.29 26.35 26.26 25.93 25.40 25.03 24.52 24.47
13.52 16.03 19.55 21.56 21.02 19.74 19.32 15.08 20.29 8.99 7.90 7.97 16.64 19.28 24.20 24.51 25.53 24.82 25.43 25.86 24.81 25.89 27.68 28.63 27.86 28.10 27.84 28.22 28.48 28.44 27.54 26.71 27.02 26.96 26.74 26.55 26.63 26.27 25.96 25.90 25.76 25.12 25.27 27.48
22.50 10.61 19.91 20.13 20.23 19.84 19.31 20.87 15.31 12.68 2.50 2.21 15.57 13.12 17.34 22.33 24.33 25.09 25.14 24.97 25.35 26.09 26.79 28.67 28.48 28.39 29.05 29.66 29.68 28.93 28.74 27.89 27.02 27.14 26.84 27.26 26.63 26.70 26.58 25.91 25.46 25.55 25.79 26.03
16.37 16.24 14.84 18.22 13.27 16.54 14.92 14.80 15.44 16.35 15.07 9.38 7.30 13.69 19.55 23.58 24.73 24.54 24.69 25.88 26.19 26.60 27.15 27.99 28.36 28.35 28.69 28.43 28.36 28.49 27.29 27.35 26.52 26.84 26.68 26.39 26.21 26.47 26.39 26.17 25.67 25.74 26.18 25.67
21.16 14.93 6.92 12.83 15.84 17.74 16.43 17.07 17.45 12.76 10.70 10.62 11.69 12.61 24.92 24.49 25.71 25.23 25.15 26.48 26.46 27.40 27.33 27.13 27.72 27.89 27.53 26.87 26.95 27.93 27.65 27.44 27.69 27.45 26.81 26.39 26.85 26.55 25.58 25.46 25.69 26.52 26.03 26.00
20.10 12.07 4.04 12.64 14.06 15.95 10.05 18.65 21.30 17.94 16.06 8.19 8.25 14.72 25.73 24.47 24.06 24.69 24.59 25.08 26.04 25.99 25.47 26.80 26.98 27.36 27.02 26.57 26.68 27.55 27.93 28.24 28.22 27.71 26.93 26.35 26.06 25.77 25.28 25.38 25.77 26.20 24.66 24.70
26.26 11.36 12.78 15.34 15.63 12.20 7.31 11.11 19.48 13.58 6.65 12.92 16.03 18.42 21.66 22.51 22.66 23.84 24.37 24.71 24.68 24.91 25.96 25.72 25.50 26.11 26.51 26.83 26.06 26.23 27.08 27.45 27.35 27.29 26.51 25.87 25.88 25.84 25.48 25.66 25.70 25.81 25.13 23.40
19.10 12.47 9.14 11.20 17.15 14.06 10.84 8.70 15.28 13.85 16.12 14.77 21.69 22.29 22.90 22.56 21.82 24.01 24.23 23.85 25.18 25.35 24.68 23.74 24.90 24.88 25.35 26.09 25.54 25.74 26.53 26.74 26.81 26.44 25.42 25.46 26.05 26.16 25.83 25.40 25.20 25.44 25.27 24.78
11.94 6.69 5.74 7.62 17.09 17.08 11.27 12.55 12.40 18.72 20.26 18.70 20.03 19.59 23.75 18.50 22.99 22.36 23.28 23.40 22.97 22.90 22.90 22.51 24.02 25.20 26.02 26.18 25.55 26.21 25.18 25.15 25.84 25.22 25.01 25.41 25.71 25.75 25.18 24.89 24.89 24.88 24.75 24.44
12.45 7.71 7.84 6.48 15.61 14.01 10.50 10.64 13.91 15.67 11.12 18.70 15.52 22.12 22.65 18.81 22.46 20.94 20.85 22.11 22.55 22.59 22.72 23.44 23.55 23.99 25.00 24.86 26.21 24.00 23.34 23.55 24.15 24.25 24.74 25.06 25.05 24.71 24.31 24.58 24.50 24.29 23.47 23.58
8.92 8.63 7.14 3.61 5.39 5.66 17.70 16.64 16.39 19.66 19.32 19.66 16.68 18.09 19.29 20.02 19.48 19.45 19.52 20.74 22.09 22.64 22.50 21.07 19.72 19.40 20.31 21.69 22.33 22.80 22.52 22.23 21.94 21.00 20.52 21.21 22.01 21.76 22.48 21.64 20.76 20.61 22.01 19.14
14.57 11.67 5.84 7.73 -0.98 13.21 15.81 14.71 13.33 12.87 16.10 21.11 20.66 24.07 17.48 16.77 15.42 15.06 20.21 20.71 19.78 19.56 18.95 17.31 16.48 16.34 18.34 19.39 19.61 18.58 16.56 16.36 16.25 16.01 16.74 16.69 18.20 18.17 17.66 17.62 15.82 14.23 13.98 12.36
15.49 12.77 11.72 4.50 6.00 4.78 11.68 14.93 16.67 16.01 16.14 15.65 22.16 22.87 19.22 17.60 14.80 12.97 16.12 19.10 17.90 17.00 16.73 15.30 14.99 15.10 15.43 17.47 17.60 14.56 11.41 10.72 9.05 11.03 12.57 13.97 14.14 15.23 14.13 14.69 15.38 15.13 10.57 13.10
4.51 3.29 8.61 5.23 3.87 7.84 14.89 16.88 17.12 12.27 16.61 15.38 19.15 19.16 19.81 19.43 15.08 15.98 16.85 15.24 16.09 16.99 14.82 13.41 12.02 10.77 11.42 15.34 14.27 10.07 7.54 5.13 7.37 8.36 10.12 10.83 11.45 12.81 14.64 14.48 13.33 11.33 9.14 10.64
7.23 6.61 4.04 2.60 1.80 7.97 17.33 17.83 17.29 17.30 13.22 16.90 16.57 16.83 17.60 16.63 16.44 14.85 14.15 13.62 13.39 12.66 13.55 12.31 9.51 8.62 8.52 9.67 10.50 6.67 4.22 4.99 4.36 5.59 6.62 6.82 8.08 12.41 13.29 11.94 12.26 10.49 9.16 10.11
11.53 13.27 9.30 14.29 13.67 12.84 19.09 18.75 17.94 14.98 15.24 17.24 16.83 18.44 18.80 16.51 14.31 13.41 11.50 10.45 9.05 10.07 11.81 11.35 8.07 4.66 1.69 4.19 6.26 3.67 2.50 2.67 2.26 0.71 1.03 2.17 5.71 8.73 9.44 8.98 7.74 9.74 11.28 10.46
10.20 10.28 11.36 14.84 10.78 14.43 18.24 18.75 18.18 17.56 16.61 17.65 17.36 17.75 17.36 14.05 14.05 11.91 10.94 10.82 9.84 8.99 8.15 9.35 6.91 3.64 2.15 2.52 2.80 1.81 1.33 -0.24 -4.09 -2.83 -0.36 2.31 1.78 3.33 5.31 7.50 9.21 8.27 6.15 6.07
14.34 15.74 11.02 12.80 17.06 19.41 20.04 20.31 17.74 15.46 15.32 14.49 14.75 15.41 14.90 15.24 13.91 12.85 10.88 9.88 8.37 7.25 6.33 6.09 4.92 2.94 1.44 1.69 -0.48 -1.47 -0.63 -2.22 -2.35 -2.50 -2.40 -1.72 1.20 0.69 3.05 5.69 5.93 7.79 8.84 10.56
14.46 12.73 16.00 15.93 20.60 19.75 18.27 18.59 17.36 15.01 13.44 12.95 11.88 10.78 12.51 12.71 10.58 9.50 7.46 7.48 5.97 4.17 4.16 2.53 1.42 0.01 -0.96 -1.17 -1.79 -2.72 -2.59 -2.90 -5.37 -2.49 -1.73 -0.98 -0.46 -0.00 1.78 1.47 1.23 7.24 10.05 12.25